FW9881 Weather Reports


time (UTC)temp
F
wind
direction
speed
knots
gust
knots
rain 1hr
in
rain 24hr
in
rain mn
in
humidity
%
barometer
mb
20260506072031 59 219 0.9 2.6 0.00 0.02 0.00 75 1012.2
20260506071030 59 236 2.6 5.2 0.00 0.02 0.00 73 1012.3
20260506062045 61 214 5.2 8.7 0.00 0.02 0.00 72 1012.0
20260506061030 60 214 1.7 8.7 0.00 0.02 0.00 72 1011.9
20260506050929 61 205 5.2 9.6 0.00 0.02 0.00 69 1012.1
20260506044831 61 202 1.7 4.3 0.00 0.02 0.00 69 1012.1
20260506043928 61 219 3.5 6.1 0.00 0.02 0.00 70 1012.4
20260506042945 61 186 1.7 6.1 0.00 0.02 0.00 71 1012.4
20260506042830 61 178 1.7 4.3 0.00 0.02 0.00 71 1012.4
20260506041829 61 187 4.3 7.0 0.00 0.02 0.00 72 1012.4
20260506040831 61 248 3.5 4.3 0.00 0.02 0.00 72 1012.5
20260506040728 61 230 0.9 2.6 0.00 0.02 0.00 73 1012.4
20260506035735 61 229 2.6 4.3 0.00 0.02 0.02 74 1012.3
20260506035636 61 210 1.7 3.5 0.00 0.02 0.02 75 1012.3
20260506034734 60 228 2.6 3.5 0.00 0.02 0.02 78 1012.3
20260506033735 59 210 3.5 5.2 0.00 0.02 0.02 81 1012.4
20260506031834 60 176 1.7 4.3 0.00 0.02 0.02 83 1012.1
20260506031735 60 193 1.7 3.5 0.00 0.02 0.02 83 1012.2
20260506030752 59 220 1.7 4.3 0.00 0.02 0.02 85 1012.3
20260506025833 59 247 0.9 2.6 0.00 0.02 0.02 86 1012.3
20260506024850 59 196 1.7 2.6 0.00 0.02 0.02 88 1012.3
20260506023934 59 212 1.7 2.6 0.00 0.02 0.02 88 1012.5
20260506023835 59 239 1.7 1.7 0.00 0.02 0.02 88 1012.5
20260506021835 59 199 0.9 2.6 0.00 0.02 0.02 89 1012.1
20260506020836 59 157 0.0 0.9 0.00 0.02 0.02 88 1012.1
20260506015935 59 157 0.0 0.0 0.00 0.02 0.02 89 1012.2
20260506015836 59 157 0.0 0.0 0.00 0.02 0.02 89 1012.2
20260506014737 59 157 0.0 0.0 0.00 0.02 0.02 88 1012.3
20260506012751 60 157 0.0 0.0 0.00 0.02 0.02 87 1012.1
20260506011837 60 148 0.9 1.7 0.00 0.02 0.02 86 1011.9
20260506011735 60 112 0.0 0.9 0.00 0.02 0.02 86 1011.9
20260506011634 61 112 0.0 1.7 0.00 0.02 0.02 86 1011.9
20260506004833 61 225 0.0 0.0 0.02 0.02 0.02 85 1011.9
20260506003834 61 180 0.0 0.0 0.02 0.02 0.02 83 1011.7
20260506003734 61 180 0.0 0.0 0.02 0.02 0.02 82 1011.8
20260506002737 62 180 0.0 0.9 0.02 0.02 0.02 79 1011.7
20260506001834 63 180 0.0 0.9 0.02 0.02 0.02 76 1011.7
20260506000933 65 22 0.0 0.0 0.02 0.02 0.02 67 1011.5
20260506000834 65 22 0.0 0.0 0.02 0.02 0.02 66 1011.6
20260505235853 69 157 0.0 0.0 0.01 0.01 0.01 55 1011.1
20260505234936 71 337 4.3 5.2 0.00 0.00 0.00 46 1010.6
20260505232933 72 252 2.6 5.2 0.00 0.00 0.00 46 1009.3
20260505231934 73 247 1.7 4.3 0.00 0.00 0.00 45 1009.0
20260505231033 73 226 2.6 4.3 0.00 0.00 0.00 44 1008.9
20260505230951 73 229 6.1 13.0 0.00 0.00 0.00 45 1008.9
20260505223036 75 233 4.3 12.2 0.00 0.00 0.00 42 1008.1
20260505222933 75 197 3.5 7.0 0.00 0.00 0.00 43 1008.1
20260505221833 75 252 4.3 9.6 0.00 0.00 0.00 41 1007.8
20260505220834 76 224 7.0 12.2 0.00 0.00 0.00 40 1007.9
20260505215851 77 237 4.3 7.8 0.00 0.00 0.00 38 1007.5
20260505214933 78 201 7.0 14.8 0.00 0.00 0.00 39 1007.6
20260505214850 78 197 2.6 5.2 0.00 0.00 0.00 39 1007.6
20260505213835 78 227 4.3 9.6 0.00 0.00 0.00 38 1007.5
20260505213752 78 192 3.5 7.0 0.00 0.00 0.00 39 1007.3
20260505211833 78 213 3.5 6.1 0.00 0.00 0.00 37 1007.2
20260505210835 79 244 3.5 9.6 0.00 0.00 0.00 37 1006.9
20260505205835 79 222 7.0 15.6 0.00 0.00 0.00 36 1007.0
20260505204933 79 220 6.1 13.9 0.00 0.00 0.00 37 1007.0
20260505204003 78 193 6.1 9.6 0.00 0.00 0.00 37 1007.1
20260505204000 78 218 4.3 11.3 0.00 0.00 0.00 36 1007.1
20260505203533 78 205 4.3 8.7 0.00 0.00 0.00 36 1007.1
20260505202534 78 233 6.1 13.0 0.00 0.00 0.00 35 1007.2
20260505202434 78 194 5.2 15.6 0.00 0.00 0.00 36 1007.2
20260505201434 79 247 3.5 7.0 0.00 0.00 0.00 35 1007.3
20260505200533 79 244 7.0 13.9 0.00 0.00 0.00 35 1007.3
20260505195535 79 203 3.5 6.1 0.00 0.00 0.00 35 1007.3
20260505195435 79 236 5.2 12.2 0.00 0.00 0.00 36 1007.3
20260505194449 78 208 3.5 7.8 0.00 0.00 0.00 36 1007.3
20260505193535 78 223 5.2 11.3 0.00 0.00 0.00 36 1007.5
20260505192534 79 202 7.0 13.0 0.00 0.00 0.00 37 1007.4
20260505192434 79 195 5.2 11.3 0.00 0.00 0.00 37 1007.5
20260505191451 78 259 5.2 11.3 0.00 0.00 0.00 35 1007.6
20260505190535 78 230 5.2 13.0 0.00 0.00 0.00 36 1007.6
20260505185536 79 240 4.3 12.2 0.00 0.00 0.00 36 1007.6
20260505185435 79 191 5.2 14.8 0.00 0.00 0.00 35 1007.6
20260505184433 78 240 4.3 7.8 0.00 0.00 0.00 36 1007.8
20260505183433 79 236 3.5 6.1 0.00 0.00 0.00 35 1008.0
20260505183334 79 222 3.5 7.8 0.00 0.00 0.00 36 1008.1
20260505182336 79 209 7.8 13.0 0.00 0.00 0.00 35 1008.2
20260505181335 79 225 3.5 7.8 0.00 0.00 0.00 35 1008.4
20260505180433 78 241 5.2 10.4 0.00 0.00 0.00 35 1008.4
20260505175433 78 236 5.2 8.7 0.00 0.00 0.00 35 1008.6
20260505174434 78 233 5.2 11.3 0.00 0.00 0.00 35 1008.6
20260505174334 78 171 7.0 20.0 0.00 0.00 0.00 36 1008.5
20260505173334 79 192 6.1 17.4 0.00 0.00 0.00 37 1008.8
20260505172333 78 142 6.1 10.4 0.00 0.00 0.00 36 1008.7
20260505172233 78 173 7.0 15.6 0.00 0.00 0.00 36 1008.8
20260505171235 78 221 3.5 7.0 0.00 0.00 0.00 37 1008.8
20260505170234 77 162 5.2 12.2 0.00 0.00 0.00 38 1009.0
20260505165233 77 244 5.2 7.8 0.00 0.00 0.00 37 1009.1
20260505165135 77 229 3.5 9.6 0.00 0.00 0.00 38 1009.2
20260505164234 78 189 2.6 6.1 0.00 0.00 0.00 37 1009.3
20260505162432 77 175 5.2 12.2 0.00 0.00 0.00 38 1009.7
20260505152449 72 245 4.3 8.7 0.00 0.00 0.00 43 1011.2
20260505151537 71 266 5.2 8.7 0.00 0.00 0.00 45 1011.3
20260505151434 71 255 5.2 11.3 0.00 0.00 0.00 45 1011.4
20260505150434 71 220 6.1 14.8 0.00 0.00 0.00 46 1011.4
20260505140434 68 227 5.2 9.6 0.00 0.00 0.00 51 1011.7
20260505123433 59 191 1.7 4.3 0.00 0.00 0.00 63 1012.1
20260505122335 59 215 0.9 3.5 0.00 0.00 0.00 64 1012.0
20260505121335 59 184 0.9 1.7 0.00 0.00 0.00 62 1012.1
20260505120335 58 229 5.2 11.3 0.00 0.00 0.00 64 1012.1
20260505115334 58 151 0.9 1.7 0.00 0.00 0.00 65 1012.1
20260505114333 57 233 3.5 7.0 0.00 0.00 0.00 68 1012.3
20260505112334 55 236 0.0 1.7 0.00 0.00 0.00 70 1012.0
20260505110433 53 171 1.7 3.5 0.00 0.00 0.00 72 1011.9
20260505100335 52 171 0.0 1.7 0.00 0.00 0.00 70 1011.8
20260505095351 53 195 1.7 2.6 0.00 0.00 0.00 69 1011.8
20260505094433 53 187 1.7 3.5 0.00 0.00 0.00 68 1011.7
20260505094335 53 212 0.9 1.7 0.00 0.00 0.00 69 1011.8
20260505092334 53 158 0.0 0.9 0.00 0.00 0.00 68 1011.8
20260505091333 53 190 0.9 4.3 0.00 0.00 0.00 67 1011.9
20260505090432 53 184 1.7 3.5 0.00 0.00 0.00 67 1011.9
20260505085435 53 220 0.0 0.0 0.00 0.00 0.00 66 1011.8
20260505082533 54 185 0.0 1.7 0.00 0.00 0.00 61 1011.6
20260505081536 55 240 1.7 3.5 0.00 0.00 0.00 58 1011.7
20260505080533 57 197 1.7 3.5 0.00 0.00 0.00 57 1011.6
20260505080432 57 195 1.7 3.5 0.00 0.00 0.00 57 1011.7
20260505075532 58 202 1.7 2.6 0.00 0.00 0.00 56 1011.7
20260505074551 58 226 3.5 6.1 0.00 0.00 0.00 58 1011.6